| time (UTC) | temp F | wind direction | speed knots | gust knots | rain 1hr in | rain 24hr in | rain mn in | humidity % | barometer mb |
| 20260504034521 | 54 | 24 | 0.9 | 1.7 | 0.00 | 0.00 | 0.00 | 82 | 1017.3 |
| 20260504033103 | 54 | 24 | 1.7 | 3.5 | 0.00 | 0.00 | 0.00 | 79 | 1017.2 |
| 20260504031502 | 53 | 24 | 0.9 | 3.5 | 0.00 | 0.00 | 0.00 | 79 | 1017.2 |
| 20260504030039 | 54 | 24 | 0.9 | 3.5 | 0.00 | 0.00 | 0.00 | 76 | 1017.3 |
| 20260504024538 | 54 | 24 | 2.6 | 4.3 | 0.00 | 0.00 | 0.00 | 75 | 1017.1 |
| 20260504023105 | 55 | 24 | 2.6 | 4.3 | 0.00 | 0.00 | 0.00 | 76 | 1017.2 |
| 20260504021521 | 54 | 27 | 3.5 | 5.2 | 0.00 | 0.00 | 0.00 | 80 | 1017.2 |
| 20260504020043 | 54 | 21 | 1.7 | 4.3 | 0.00 | 0.00 | 0.00 | 84 | 1017.3 |
| 20260504014513 | 54 | 21 | 1.7 | 2.6 | 0.00 | 0.00 | 0.00 | 85 | 1017.2 |
| 20260504013027 | 54 | 21 | 2.6 | 5.2 | 0.00 | 0.00 | 0.00 | 87 | 1017.2 |
| 20260504011555 | 53 | 21 | 3.5 | 4.3 | 0.00 | 0.00 | 0.00 | 87 | 1017.2 |
| 20260504010015 | 52 | 19 | 2.6 | 4.3 | 0.00 | 0.00 | 0.00 | 86 | 1017.1 |
| 20260504004546 | 53 | 17 | 3.5 | 5.2 | 0.00 | 0.00 | 0.00 | 84 | 1017.1 |
| 20260504003045 | 53 | 18 | 2.6 | 4.3 | 0.00 | 0.00 | 0.00 | 84 | 1017.1 |
| 20260504001506 | 53 | 35 | 3.5 | 7.0 | 0.00 | 0.00 | 0.00 | 83 | 1017.2 |
| 20260504000029 | 53 | 32 | 2.6 | 5.2 | 0.00 | 0.00 | 0.00 | 85 | 1017.3 |
| 20260503234554 | 53 | 22 | 2.6 | 4.3 | 0.00 | 0.00 | 0.00 | 85 | 1017.5 |
| 20260503233101 | 53 | 26 | 2.6 | 5.2 | 0.00 | 0.00 | 0.00 | 85 | 1017.5 |
| 20260503231523 | 53 | 13 | 3.5 | 5.2 | 0.00 | 0.00 | 0.00 | 84 | 1017.7 |
| 20260503230044 | 54 | 24 | 2.6 | 4.3 | 0.00 | 0.00 | 0.00 | 84 | 1017.8 |
| 20260503224606 | 54 | 26 | 1.7 | 4.3 | 0.00 | 0.00 | 0.00 | 84 | 1017.9 |
| 20260503223024 | 55 | 31 | 2.6 | 5.2 | 0.00 | 0.00 | 0.00 | 84 | 1017.9 |
| 20260503221552 | 55 | 17 | 1.7 | 4.3 | 0.00 | 0.00 | 0.00 | 84 | 1017.9 |
| 20260503220007 | 55 | 331 | 1.7 | 3.5 | 0.00 | 0.00 | 0.00 | 84 | 1017.9 |
| 20260503214533 | 55 | 26 | 0.9 | 3.5 | 0.00 | 0.00 | 0.00 | 84 | 1017.9 |
| 20260503213056 | 56 | 36 | 2.6 | 5.2 | 0.00 | 0.00 | 0.00 | 83 | 1017.9 |
| 20260503211550 | 56 | 360 | 0.0 | 7.0 | 0.00 | 0.00 | 0.00 | 85 | 1017.9 |
| 20260503210007 | 55 | 16 | 0.0 | 3.5 | 0.00 | 0.00 | 0.00 | 85 | 1018.0 |
| 20260503204546 | 55 | 16 | 1.7 | 3.5 | 0.00 | 0.00 | 0.00 | 84 | 1017.8 |
| 20260503203040 | 56 | 19 | 2.6 | 3.5 | 0.00 | 0.00 | 0.00 | 84 | 1017.7 |
| 20260503201552 | 56 | 19 | 0.9 | 2.6 | 0.00 | 0.00 | 0.00 | 83 | 1017.7 |
| 20260503200101 | 57 | 29 | 1.7 | 3.5 | 0.00 | 0.00 | 0.00 | 82 | 1017.7 |
| 20260503194523 | 57 | 34 | 0.0 | 0.9 | 0.00 | 0.00 | 0.00 | 80 | 1017.5 |
| 20260503193051 | 58 | 34 | 0.0 | 3.5 | 0.00 | 0.00 | 0.00 | 79 | 1017.5 |
| 20260503191505 | 58 | 331 | 0.0 | 2.6 | 0.00 | 0.00 | 0.00 | 79 | 1017.2 |
| 20260503190029 | 58 | 198 | 0.0 | 7.8 | 0.00 | 0.00 | 0.00 | 78 | 1017.3 |
| 20260503184559 | 59 | 259 | 1.7 | 9.6 | 0.00 | 0.00 | 0.00 | 77 | 1017.3 |
| 20260503183115 | 60 | 184 | 4.3 | 7.0 | 0.00 | 0.00 | 0.00 | 74 | 1017.2 |
| 20260503181522 | 60 | 250 | 1.7 | 8.7 | 0.00 | 0.00 | 0.00 | 72 | 1017.1 |
| 20260503180048 | 61 | 238 | 3.5 | 8.7 | 0.00 | 0.00 | 0.00 | 69 | 1017.0 |
| 20260503174558 | 63 | 227 | 2.6 | 6.1 | 0.00 | 0.00 | 0.00 | 64 | 1016.9 |
| 20260503173121 | 63 | 228 | 3.5 | 7.0 | 0.00 | 0.00 | 0.00 | 64 | 1016.6 |
| 20260503171525 | 64 | 166 | 3.5 | 8.7 | 0.00 | 0.00 | 0.00 | 63 | 1016.3 |
| 20260503120116 | 69 | 300 | 7.8 | 13.9 | 0.00 | 0.00 | 0.00 | 47 | 1018.0 |
| 20260503090104 | 64 | 257 | 6.1 | 10.4 | 0.00 | 0.00 | 0.00 | 55 | 1019.0 |
| 20260503081556 | 60 | 177 | 4.3 | 7.8 | 0.00 | 0.00 | 0.00 | 61 | 1019.1 |
| 20260503071510 | 59 | 217 | 1.7 | 5.2 | 0.00 | 0.00 | 0.00 | 60 | 1019.2 |
| 20260503054509 | 55 | 33 | 2.6 | 4.3 | 0.00 | 0.00 | 0.00 | 65 | 1019.0 |
| 20260503053036 | 54 | 32 | 1.7 | 4.3 | 0.00 | 0.00 | 0.00 | 64 | 1019.0 |
| 20260503051559 | 54 | 65 | 0.9 | 2.6 | 0.00 | 0.00 | 0.00 | 63 | 1019.0 |
| 20260503050015 | 53 | 360 | 1.7 | 5.2 | 0.00 | 0.00 | 0.00 | 61 | 1019.1 |
| 20260503044542 | 54 | 38 | 3.5 | 7.0 | 0.00 | 0.00 | 0.00 | 59 | 1018.8 |
| 20260503043104 | 54 | 38 | 4.3 | 8.7 | 0.00 | 0.00 | 0.00 | 60 | 1018.9 |
| 20260503041526 | 52 | 318 | 0.0 | 2.6 | 0.00 | 0.00 | 0.00 | 65 | 1018.9 |
| 20260503040044 | 52 | 34 | 0.9 | 2.6 | 0.00 | 0.00 | 0.00 | 68 | 1018.9 |